Terminal Aerodrome Forecast
Issued by NWS Portland, OR

Home | Current Version | Previous Version | Text Only | Print | Product List | Glossary On
Versions: 1 2 3 4 5 6 7 8 9 10 11 12 13 14 15 16 17 18 19 20 21 22 23 24 25 26 27 28
000
FTUS46 KPQR 311728
TAFTTD
TAF
KTTD 311728Z 3118/0118 25004KT P6SM SKC
     FM011300 VRB03KT P6SM FEW006 SCT010
     FM011700 25003KT P6SM SKC=

USA.gov is the U.S. government's official web portal to all federal, state and local government web resources and services.